Location: Bancroft Point
(32.7370°N, 116.9856°W)
Time: 23:58:29
(UTC+00:00)

Daily predictions for brighter satellites

Satellite Brightness Start Highest point End
(mag) Time Altitude Azimuth Time Altitude Azimuth Time Altitude Azimuth
SL-08 R/B 4.5 12:01:00 10° N 12:07:11 74° W 12:13:25 10° S
YAOGAN 6 3.0 12:08:19 10° NNE 12:11:55 65° E 12:15:30 10° S
Cosmos 2369 Rocket 3.5 12:11:40 10° WNW 12:15:21 18° W 12:19:02 10° SW
FALCON 9 R/B 4.3 12:08:49 10° W 12:17:04 18° WSW 12:21:20 10° SSW
ATLAS 2A CENTAUR R/B 3.3 12:03:36 10° W 12:17:22 56° S 12:22:29 10° ESE
CZ-4C R/B 3.0 12:14:09 10° S 12:17:41 78° WSW 12:21:26 10° NNW
Cosmos 1110 Rocket 4.3 12:13:00 10° S 12:18:08 74° ESE 12:23:18 10° NNE
Nadezhda 3 Rocket 4.3 12:12:04 10° SSW 12:18:12 53° W 12:24:20 10° N
MINOTAUR 4 R/B 3.9 12:15:14 10° S 12:18:42 76° WSW 12:22:13 10° NNW
Cosmos 1190 Rocket 4.5 12:14:15 10° NNW 12:19:09 40° W 12:24:03 10° S
Cosmos 1869 3.4 12:16:40 10° NNW 12:20:27 50° W 12:24:11 10° S
CZ-4B R/B 3.7 12:15:59 10° NNE 12:21:13 84° ESE 12:26:29 10° SSW
CZ-3 R/B 3.6 12:00:27 10° W 12:35:57 72° SSW 12:44:15 10° ESE
